Wetterübersicht - Hohenpeißenberg - Ortsteil Bschorrwald     750 m über NN
47°47'26''N 11°00'47''E - - Zeitangaben in MEZ
Datum Donnerstag, 25. Februar 2021
Aktualisierung von 00:10 Uhr bis 23:50 Uhr alle 10 Minuten.
Zeit 16:28 (-1h = UTC-Zeit)
Temperatur Außen aktuell
19,4 °C
Min.(05:37)
6,5 °C
Max.(15:04)
20,4 °C
Durchschnitt
12,5 °C
Luftfeuchte Außen aktuell
26 %
Min.(14:14)
24 %
Max.(00:40)
69 %
Durchschnitt
47 %
Taupunkt aktuell
-0,6 °C
Min.(14:14)
-1,5 °C
Max.(11:13)
4,7 °C
Durchschnitt
0,9 °C
Luftdruck
aktuell
1028,1 hPa
gleichbleibend

-0,4 hPa/3h
Min.(14:39)
1027,8 hPa
Max.(00:00)
1031,0 hPa
Durchschnitt
1029,7 hPa
+0,2 hPa/1h +0,2 hPa/2h -1,6 hPa/6h -1,9 hPa/12h -2,9 hPa/24h
Solarstrahlung aktuell
185 W/m²
Max.(12:39)
599 W/m²
Durchschnitt
375 W/m²
Wettervorhersage sonnig
Wettervorhersage VantagePro Teilweise wolkig mit wenig Temperaturänderung.
Persönliches Wohlbefinden keine Belastung (6)
Windchill aktuell
19,4
Min.(05:36)
5,0
Max.(15:04)
20,4
Durchschnitt
12,4
Wind Böen aktuell
4,8 (1)
Max-Tag(12:39)
SO 14,5 (3)
Durchschnitt
4,2 (1)
Max Wind Böen letzte Stunde
11,3
letzten 3 Stunden
14,5
letzten 6 Stunden
14,5
Windgeschwindigkeit aktuell
3,2 (1)
Max.(14:20)
O 11,3 (2)
Durchschnitt
2,4 (1)
Windrichtung 67 / O-NO dominierend
NO
Niederschlag
letzte Stunde 0,0
letzten 6 Stunden 0,0
aktueller Tag 0,0
aktuelle Woche 0,0
aktueller Monat 31,8
letzter Monat 55,4
Februar Vorjahr 121,6
aktuelles Jahr 87,2
Regen / Jahr 29
Schneehöhe 0,0 23.03.2015 21:45
Trockenzeiten
letzter Regen >0,2 l/m² 17.02.2021 um 11:44 Uhr
Trocken seit 8 Tage, 4 Stunden, 43 Minuten
Längste Trockenzeit 05.09.2015, 09:00 Uhr
bis
18.01.2016, 10:43 Uhr
Dauer: 135 Tage, 1 Stunden, 43 Minuten
Dauerfrost
Letzte Dauerfrostperiode 18.02.2021, 06:03 Uhr
bis
18.02.2021, 07:35 Uhr
Dauer: 1 Stunde, 32 Minuten
Längste Dauerfrostperiode 23.01.2010, 11:37 Uhr
bis
16.02.2010, 12:45 Uhr
Dauer: 24 Tage, 1 Stunden, 7 Minuten
Sonne
Sonnenaufgang07:04
Sonnenzenit12:28
Sonnenhöchststand33,299
Sonnenintensität aktuell315
Sonnenuntergang17:54
Sonnenaufgang morgen07:02 26. Februar 2021
Tageslänge10:50
Bewölkungsgradsonnig 100
Sonnenschein akt. Tag7:50 Stunden
Sonnenschein letzte Stunde60
Sonnenschein Woche (bis Vortag)23:44 Stunden
Sonnenschein Monat (bis Vortag)101:04 Stunden
Mond
Alter des Mondes12 Tage, 22 Stunden, 52 Minuten
Mondaufgang15:31
Mondzenit23:21
Monduntergang06:25
Mondphase+96%
(0% = Neumond, 100% = Vollmond)
nächster Vollmond09:18 27. Februar 2021
nächster Neumond11:22 13. März 2021
Die dargestellten Werte repräsentieren die Daten des aktuellen Tages! Der Luftdruck ist auf Meereshöhe bezogen!
Die Mond-/Sonnen-Daten beziehen sich auf die Standortkoordinaten von 47° 47' 26" Nord - 11° 0' 47" Ost
Zeit --> Mitteleuropäische Zeit
Die Wettervorhersage wurde berechnet - ohne Gewähr!

          Aussen-    Aussen                                                    Wind                              
Zeit     tempera.   Feuchte   Luftdruck   Taupunkt  Windchill      Wind       richtung     Sonne        Regen        
----------------------------------------------------------------------------------------------------------------------------
00:00      8,1      67  1031,0     2,3     8,1      0,0        N       0     0,0   
01:00      7,6      69  1030,7     2,3     7,6      0,0        N       0     0,0   
02:00      8,7      61  1030,4     1,6     8,7      1,6     O-NO       0     0,0   
03:00      9,2      55  1030,2     0,6     8,9      4,8       NO       0     0,0   
04:00      8,7      57  1030,0     0,7     8,7      1,6       NO       0     0,0   
05:00      7,4      59  1030,2    -0,1     7,4      0,0        N       0     0,0   
06:00      7,6      58  1030,3    -0,1     7,6      3,2       NO       0     0,0   
07:00      8,5      52  1030,1    -0,8     8,1      4,8       NO       0     0,0   
08:00      7,6      56  1030,4    -0,6     7,6      1,6     N-NO      51     0,0   
09:00     10,5      47  1030,5    -0,3    10,5      1,6     N-NO     260     0,0   
10:00     13,8      44  1029,9     1,8    13,8      1,6     N-NO     424     0,0   
11:00     16,4      41  1029,6     3,1    16,4      0,0        N     480     0,0   
12:00     17,8      33  1029,3     1,3    17,8      0,0     O-NO     578     0,0   
13:00     18,8      31  1028,7     1,3    18,8      1,6     O-SO     594     0,0   
14:00     19,6      27  1028,3     0,1    19,6      4,8        O     533     0,0   
15:00     20,2      27  1027,8     0,6    20,2      0,0     O-NO     427     0,0   
16:00     19,8      29  1027,9     1,3    19,8      4,8       NO     274     0,0   
----------------------------------------------------------------------------------------------------------------------------
Durch.    12,5      47  1029,7     0,9    12,4      2,4                           0,0

Min.       6,5      24  1027,8    -1,5     5,0
Zeit       05:37     14:14      14:39       14:14     05:36

Max.      20,4      69  1031,0     4,7                 14,5              599
Zeit       15:04     00:40      00:00       11:13                  12:39                  12:39

© 1999-2016 Werner Krenn / Mischa Thurnherr - Wetterstation Bedien- und Auswertesoftware - V2.98.4

Jahres-Eistage (Tmax < 0°C) 16 Vorjahres-Eistage (Tmax < 0°C) 6
Jahres-Frostage (Tmin < 0°C) 34 Vorjahres-Frostage (Tmin < 0°C) 70
Kalte Tage des Jahres (Tmax < 10°C) 41 Kalte Tage des Vorjahres (Tmax < 10°C) 104
Jahres-Sommertage (Tmax >= 25°C) 0 Vorjahres-Sommertage (Tmax >= 25°C) 45
Heiße Tage des Jahres (Tmax >= 30°C) 0 Heiße Tage Vorjahr (Tmax >= 30°C) 6